Tracking 22124 objects as of 25-Jan-2021
HD Live streaming from Space Station
objects crossing your sky now

WESTFORD NEEDLES

Track WESTFORD NEEDLES now!
10-day predictions
WESTFORD NEEDLES is classified as:


NORAD ID: 628
Int'l Code: 1963-014F
Perigee: 3,617.7 km
Apogee: 3,714.4 km
Inclination: 87.3 °
Period: 166.8 minutes
Semi major axis: 10037 km
RCS: 0.4773 m2 (medium)
Launch date: May 9, 1963
Source: United States (US)
Launch site: AIR FORCE WESTERN TEST RANGE (AFWTR)
aabbcc
Your satellite tracking list
Your tracking list is empty




NASA's NSSDC Master Catalog

Two Line Element Set (TLE):
1 00628U 63014F   21024.91473041  .00000003  00000-0  00000-0 0  9991
2 00628  87.3383  30.4572 0048200 277.5442  81.9938  8.63364704818990
Source of the keplerian elements: AFSPC